FW8502 Weather Reports


Display with metric or nautical units.
time (UTC)temp
F
wind
direction
speed
MPH
gust
MPH
rain 1hr
in
rain 24hr
in
rain mn
in
humidity
%
barometer
mb
20260503024536 73 238 4.0 7.0 0.11 0.44 0.44 88 1014.0
20260503023034 73 200 4.0 9.0 0.11 0.44 0.44 88 1012.9
20260503021534 73 226 4.0 9.0 0.06 0.39 0.39 88 1014.1
20260503020042 73 252 6.0 10.0 0.03 0.34 0.34 88 1014.5
20260503014532 73 259 5.0 11.0 0.02 0.33 0.33 88 1014.3
20260503013036 73 226 7.0 12.0 0.02 0.33 0.33 87 1012.9
20260503011545 73 269 4.0 9.0 0.02 0.33 0.33 87 1014.0
20260503010037 73 222 2.0 6.0 0.01 0.31 0.31 87 1013.4
20260503004532 73 213 2.0 4.0 0.02 0.31 0.31 87 1013.5
20260503003037 73 238 0.0 2.0 0.02 0.31 0.31 86 1013.4
20260503001537 74 238 1.0 9.0 0.10 0.31 0.31 86 1013.5
20260503000055 74 251 6.0 9.0 0.08 0.29 0.29 86 1013.7
20260502234537 74 135 2.0 5.0 0.08 0.29 0.29 85 1013.2
20260502233038 74 0 0.0 3.0 0.08 0.29 0.29 85 1013.6
20260502231539 74 323 1.0 4.0 0.00 0.21 0.21 85 1013.9
20260502230038 74 32 1.0 6.0 0.18 0.21 0.21 85 1013.6
20260502224537 74 45 3.0 10.0 0.21 0.21 0.21 84 1013.2
20260502223035 75 346 5.0 15.0 0.21 0.21 0.21 83 1013.3
20260502221533 76 22 7.0 12.0 0.21 0.21 0.21 80 1013.1
20260502220048 81 327 10.0 19.0 0.00 0.00 0.00 79 1012.9
20260502214537 82 304 8.0 15.0 0.00 0.00 0.00 79 1011.9
20260502213041 82 279 11.0 19.0 0.00 0.00 0.00 78 1012.3
20260502211539 82 282 8.0 16.0 0.00 0.00 0.00 77 1012.2
20260502210036 83 236 9.0 15.0 0.00 0.00 0.00 76 1011.7
20260502204538 84 272 9.0 14.0 0.00 0.00 0.00 74 1011.6
20260502203038 85 280 11.0 17.0 0.00 0.00 0.00 73 1011.8
20260502201545 85 294 11.0 19.0 0.00 0.00 0.00 73 1011.8
20260502200051 85 264 9.0 20.0 0.00 0.00 0.00 72 1011.7
20260502194540 85 296 11.0 21.0 0.00 0.00 0.00 72 1011.9
20260502193039 85 254 11.0 24.0 0.00 0.00 0.00 73 1011.9
20260502191540 85 334 12.0 20.0 0.00 0.00 0.00 73 1012.3
20260502190046 86 277 11.0 16.0 0.00 0.00 0.00 74 1012.4
20260502184539 86 313 10.0 19.0 0.00 0.00 0.00 75 1012.7
20260502183038 85 289 13.0 20.0 0.00 0.00 0.00 74 1012.9
20260502181538 85 301 12.0 20.0 0.00 0.00 0.00 75 1013.1
20260502163041 85 291 13.0 23.0 0.00 0.00 0.00 76 1013.4
20260502161535 85 277 14.0 26.0 0.00 0.00 0.00 75 1013.2
20260502151557 85 269 13.0 23.0 0.00 0.00 0.00 75 1012.8
20260502123039 75 219 6.0 10.0 0.00 0.00 0.00 87 1011.8
20260502121539 73 166 4.0 9.0 0.00 0.00 0.00 87 1011.8
20260502114538 71 213 4.0 9.0 0.00 0.00 0.00 87 1011.6
20260502113048 71 219 5.0 8.0 0.00 0.00 0.00 87 1011.6
20260502111540 70 215 4.0 8.0 0.00 0.00 0.00 86 1011.6
20260502110038 70 219 2.0 5.0 0.00 0.00 0.00 86 1011.6
20260502104536 70 190 4.0 7.0 0.00 0.00 0.00 86 1011.5
20260502103032 70 169 3.0 6.0 0.00 0.00 0.00 85 1011.5
20260502101537 70 174 2.0 5.0 0.00 0.00 0.00 85 1011.8
20260502090106 70 209 2.0 8.0 0.00 0.00 0.00 86 1011.8
20260502070050 71 0 0.0 0.0 0.00 0.00 0.00 84 1011.8
20260502064554 72 0 0.0 1.0 0.00 0.00 0.00 84 1011.9
20260502063048 72 0 0.0 2.0 0.00 0.00 0.00 84 1012.1
20260502061535 72 0 0.0 3.0 0.00 0.00 0.00 84 1012.1
20260502060058 72 0 0.0 0.0 0.00 0.00 0.00 83 1012.2
20260502054536 72 0 0.0 1.0 0.00 0.00 0.00 83 1012.3
20260502053032 72 103 0.0 0.0 0.00 0.00 0.00 83 1012.7
20260502051532 72 0 0.0 0.0 0.00 0.00 0.00 82 1012.8
20260502050040 72 0 0.0 0.0 0.00 0.00 0.00 81 1012.8
20260502044535 73 0 0.0 1.0 0.00 0.00 0.00 81 1012.9
20260502043034 73 0 0.0 1.0 0.00 0.00 0.00 81 1012.9
20260502041532 73 0 0.0 2.0 0.00 0.00 0.00 81 1012.9
20260502040032 74 0 0.0 0.0 0.00 0.00 0.00 80 1012.9
20260502034534 74 0 0.0 2.0 0.00 0.00 0.00 80 1012.9
20260502033032 75 0 0.0 3.0 0.00 0.00 0.00 80 1012.8
20260502031534 75 304 1.0 3.0 0.00 0.00 0.00 79 1012.8
20260502030038 75 301 1.0 3.0 0.00 0.00 0.00 79 1012.9